Regional Weather Roundup
Issued by NWS State College, PA

Home | Current Version | Previous Version | Text Only | Print | Product List | Glossary Off
Versions: 1 2 3 4 5 6 7 8 9 10 11 12 13 14 15 16 17 18 19 20 21 22 23 24 25 26 27 28 29 30 31 32 33 34 35 36 37 38 39 40 41 42 43 44 45 46 47 48 49 50

000
ASUS41 KCTP 202110
RWRCTP

REGIONAL WEATHER ROUNDUP
NATIONAL WEATHER SERVICE STATE COLLEGE PA
500 PM EDT SUN AUG 20 2017

Note: "fair" indicates few or no clouds below 12,000 feet with no
significant weather and/or obstructions to visibility.

* = STATION THAT DOES NOT REPORT PRECIPITATION /E.G. RAIN...SNOW...ETC/
    THUNDER OR FOG.

PAZ002>004-007>009-013>016-020>023-029>032-202200-
WESTERN PENNSYLVANIA

CITY           SKY/WX    TMP DP  RH WIND       PRES   REMARKS
ERIE           SUNNY     79  63  57 VRB3      30.11S
MEADVILLE      SUNNY     80  56  43 S5        30.14S
FRANKLIN*      SUNNY     81  54  39 SW7       30.15S
NEW CASTLE     FAIR      84  60  44 VRB5      30.14S
BEAVER COUNTY  NOT AVBL
BUTLER*        SUNNY     80  59  48 VRB3      30.15S
PITTSBURGH INT MOSUNNY   82  57  42 S6        30.13S
PITTSBURGH     SUNNY     82  58  43 SE5       30.13F
INDIANA*       SUNNY     81  57  44 SW3       30.17F
LATROBE        SUNNY     81  59  47 W6        30.14F
WASHINGTON CO* SUNNY     81  63  54 CALM      30.14S
$$

PAZ004>006-010>012-017>019-024>028-033>037-041-042-045-046-049>053-202200-
CENTRAL PENNSYLVANIA

CITY           SKY/WX    TMP DP  RH WIND       PRES   REMARKS
BRADFORD       MOSUNNY   78  56  46 NW8       30.16F
DUBOIS         SUNNY     80  52  37 CALM      30.15F
CLEARFIELD     MOSUNNY   82  55  39 MISG      30.15F
JOHNSTOWN      SUNNY     78  57  48 VRB3      30.18F
ALTOONA        SUNNY     79  61  53 CALM      30.16F
STATE COLLEGE  MOSUNNY   79  59  50 CALM      30.14F
WILLIAMSPORT   MOSUNNY   84  63  49 SW8       30.09S
SELINSGROVE    SUNNY     83  64  52 CALM      30.11F
FT INDIANTOWN  SUNNY     82  62  50 W5        30.11F
CAPITAL CITY   MOSUNNY   84  57  39 CALM      30.11S
HARRISBURG     MOSUNNY   83  67  58 SW3       30.10F
YORK           MOSUNNY   82  61  48 W3        30.12F
$$

PAZ038>040-043-044-047-048-054-055-060>062-067>071-202200-
EASTERN PENNSYLVANIA

CITY           SKY/WX    TMP DP  RH WIND       PRES   REMARKS
SCRANTON       MOSUNNY   81  59  47 NW8       30.12R
MOUNT POCONO     N/A     73  57  57 NW9G20    30.16R
ALLENTOWN      SUNNY     83  61  47 NW6       30.10R
QUAKERTOWN*    CLEAR     81  61  50 NW6       30.12R
READING        MOSUNNY   83  64  52 W8        30.10R
LANCASTER      MOSUNNY   83  62  49 W7        30.11F
COATESVILLE    CLEAR     79  61  53 W9        30.14S
POTTSTOWN      SUNNY     81  60  48 NW7       30.12S
BLUE BELL      SUNNY     79  61  53 W3        30.11S
DOYLESTOWN     SUNNY     82  60  47 W5        30.10R
WILLOW GROVE   NOT AVBL
NORTH PHILA    SUNNY     85  62  46 NW7G22    30.10S
PHILADELPHIA   MOSUNNY   85  58  39 VRB6      30.09S
$$




USA.gov is the U.S. government's official web portal to all federal, state and local government web resources and services.